[[[{"header":{"parameterUnit":"kt","parameterCategory":2,"dx":1,"dy":1,"la1":30.253999710083008,"la2":30.299108505249023,"lo1":-89.0895004272461,"lo2":-89.04439544677734,"nx":28,"ny":28,"refTime":"2022-10-19T21:00:00:Z","depth":0,"parameterNumber":1,"parameterNumberName":"U-component_of_WINDS"},"data":[2.6591,2.6548,2.6515,2.645,2.6409,2.6357,2.6327,2.6285,2.6242,2.6175,2.613,2.6089,2.603,2.5966,2.5913,2.5895,2.5874,2.5886,2.5862,2.5848,2.5844,2.584,2.5848,2.5882,2.5882,2.588,2.588,2.588,2.6587,2.6546,2.6503,2.6436,2.6398,2.6368,2.6312,2.628,2.6234,2.6181,2.6134,2.6071,2.6015,2.595,2.589,2.5867,2.5847,2.5853,2.5852,2.5843,2.5828,2.5837,2.587,2.587,2.587,2.587,2.587,2.587,2.6569,2.6545,2.6486,2.6437,2.6394,2.6349,2.6319,2.627,2.6224,2.6159,2.6125,2.6071,2.6008,2.5916,2.5876,2.5831,2.5817,2.5811,2.5808,2.5807,2.5811,2.5818,2.5819,2.5818,2.5818,2.5818,2.5818,0,2.6545,2.6519,2.6474,2.6419,2.6381,2.6333,2.6284,2.6264,2.6191,2.6156,2.6102,2.6063,2.5988,2.593,2.5864,2.5822,2.5782,2.5774,2.5769,2.5784,2.5807,2.5793,2.5768,2.5773,2.5773,2.5772,2.5772,2.5772,2.6524,2.6499,2.6419,2.6392,2.6356,2.6313,2.6279,2.6217,2.6183,2.6111,2.609,2.6033,2.5983,2.5899,2.5836,2.5778,2.5757,2.5763,2.5747,2.5765,2.5754,2.5756,2.5752,2.5766,2.5767,2.5768,2.5768,0,2.6514,2.6457,2.6408,2.6329,2.6309,2.6285,2.6217,2.6188,2.6142,2.6096,2.6081,2.6007,2.5953,2.5889,2.5813,2.5781,2.5738,2.572,2.576,2.5752,2.5749,2.575,2.5755,2.5752,2.5718,2.5718,2.5718,0,2.6472,2.6441,2.6358,2.6332,2.6296,2.6233,2.6199,2.6155,2.61,2.6063,2.6009,2.5975,2.5899,2.5855,2.5807,2.5761,2.5747,2.5718,2.5705,2.5722,2.5725,2.5699,2.5696,2.568,2.568,2.568,2.568,0,2.6461,2.638,2.6339,2.631,2.6222,2.6203,2.6164,2.6102,2.6068,2.6014,2.5991,2.5932,2.5898,2.5853,2.5792,2.5784,2.5734,2.571,2.5705,2.5706,2.5694,2.5695,2.5719,2.568,2.568,2.568,2.568,0,2.6416,2.6366,2.6314,2.6239,2.6219,2.6191,2.6129,2.609,2.6028,2.5996,2.5952,2.5907,2.5863,2.5843,2.578,2.5786,2.5756,2.5725,2.5723,2.5712,2.5692,2.5711,2.5743,2.5742,2.5707,2.5707,2.5707,0,2.642,2.6351,2.6297,2.6248,2.6207,2.615,2.6116,2.6063,2.6018,2.5975,2.5924,2.5875,2.5847,2.5822,2.58,2.5744,2.5736,2.5743,2.5677,2.5676,2.5695,2.5724,2.5743,2.5744,2.571,2.5709,2.5709,0,2.6414,2.6307,2.6302,2.6266,2.6186,2.6151,2.6113,2.6051,2.6026,2.5971,2.5935,2.5865,2.584,2.5799,2.5755,2.5734,2.5739,2.571,2.5707,2.5716,2.5706,2.5724,2.5725,2.5714,2.5714,2.5713,2.5711,0,2.6357,2.6314,2.6299,2.6223,2.6186,2.6151,2.6084,2.6054,2.6016,2.5969,2.5916,2.5852,2.5786,2.5769,2.5731,2.5706,2.5699,2.5672,2.5645,2.5666,2.5663,2.5662,2.5656,2.5655,2.5654,2.5653,0,0,2.6372,2.631,2.625,2.6212,2.6176,2.6116,2.6084,2.6042,2.5958,2.5934,2.592,2.581,2.5758,2.57,2.5701,2.5674,2.5662,2.5657,2.5657,2.5658,2.5659,2.5657,2.5657,2.5651,2.5651,2.565,2.565,0,2.6337,2.629,2.6261,2.6216,2.6146,2.6098,2.6091,2.601,2.5978,2.5926,2.5873,2.5833,2.5746,2.5697,2.5661,2.5664,2.5624,2.5649,2.5674,2.565,2.5652,2.5654,2.5653,2.5654,2.5648,2.5648,2.5648,0,2.6317,2.626,2.6239,2.6157,2.611,2.6068,2.6026,2.5984,2.5951,2.5882,2.583,2.5785,2.5713,2.5668,2.5645,2.563,2.5593,2.5592,2.5596,2.5591,2.5564,2.5567,2.557,2.5537,2.5537,2.5537,0,0,2.6295,2.6256,2.6172,2.6144,2.6118,2.6045,2.6016,2.5974,2.5914,2.5889,2.5829,2.577,2.5718,2.5685,2.5633,2.5594,2.5572,2.5581,2.5587,2.5591,2.5589,2.5563,2.5566,2.5536,2.5536,2.5536,0,0,2.6283,2.6186,2.6159,2.6119,2.6064,2.5977,2.5961,2.5925,2.5871,2.5867,2.5792,2.5773,2.5729,2.5685,2.5689,2.5622,2.5597,2.5595,2.5651,2.5657,2.5662,2.5672,2.5633,0,0,0,0,0,2.6212,2.6199,2.6176,2.6159,2.6053,2.5991,2.5976,2.5916,2.5901,2.589,2.5834,2.5793,2.5672,2.5674,2.5657,2.5651,2.5532,2.5533,2.5533,2.5597,2.5603,2.5609,0,0,0,0,0,0,2.6205,2.6184,2.6175,2.609,2.6065,2.5991,2.5951,2.5934,2.59,2.5893,2.5805,2.579,2.5735,2.5678,2.5664,2.566,2.5637,2.5532,2.5533,2.5534,2.5599,2.5605,2.5609,0,0,0,0,0,2.6199,2.6182,2.6029,2.6089,2.6068,2.5984,2.5951,2.5936,2.5909,2.5821,2.5805,2.5866,2.5737,2.572,2.5669,2.5668,2.5647,2.5642,2.5533,2.5533,2.5534,2.5602,0,0,0,0,0,0,2.6194,2.6167,2.6023,2.6014,2.6089,2.5987,2.5969,2.5939,2.5837,2.5821,2.5878,2.5874,2.5738,2.5725,2.5712,2.5675,2.5655,2.565,2.5646,2.5533,2.5533,2.5534,0,0,0,0,0,0,2.6176,2.616,2.6018,2.6022,2.6013,2.599,2.5974,2.5921,2.5837,2.59,2.5893,2.5878,2.5755,2.5728,2.5718,2.5638,2.5661,2.5656,2.5652,2.565,2.5533,2.5534,0,0,0,0,0,0,2.6168,2.6155,2.6024,2.6017,2.6009,2.5905,2.5942,2.5835,2.5844,2.5905,2.5842,2.5842,2.576,2.5748,2.5722,2.5647,2.564,2.5661,2.5657,2.5655,2.5653,0,0,0,0,0,0,0,2.6162,2.6266,2.6076,2.6013,2.6006,2.5932,2.593,2.5928,2.5844,2.5843,2.5843,2.5842,2.569,2.5684,2.5679,2.5654,0,0,2.5661,2.5659,0,0,0,0,0,0,0,0,2.627,2.6267,2.6076,2.6074,2.6072,2.5932,2.593,2.5928,2.5844,2.5843,2.5843,2.5842,2.5688,2.5684,2.5679,0,0,0,0,0,0,0,0,0,0,0,0,0,0,0,2.6076,2.6074,0,2.5932,2.593,2.5928,2.5843,2.5843,2.5843,2.5842,2.5687,2.5683,2.568,0,0,0,0,0,0,0,0,0,0,0,0,0,0,0,0,0,0,0,0,0,0,0,0,0,0,0,0,0,0,0,0,0,0,0,0,0,0,0,0,0,0,0,0,0,0,0,0,0,0,0,0,0,0,0,0,0,0,0,0,0,0,0,0,0,0,0,0,0]}],[{"header":{"parameterUnit":"kt","parameterCategory":2,"dx":1,"dy":1,"la1":30.253999710083008,"la2":30.299108505249023,"lo1":-89.0895004272461,"lo2":-89.04439544677734,"nx":28,"ny":28,"refTime":"2022-10-19T21:00:00:Z","depth":0,"parameterNumber":2,"parameterNumberName":"V-component_of_WINDS"},"data":[-7.8059,-7.824,-7.8272,-7.8492,-7.8558,-7.8713,-7.8778,-7.8866,-7.8943,-7.913,-7.9243,-7.9293,-7.9381,-7.9521,-7.9644,-7.9663,-7.9711,-7.975,-7.9765,-7.9561,-7.9535,-7.951,-7.9468,-7.9761,-7.9762,-7.997,-7.9972,-7.9974,-7.79,-7.7967,-7.8095,-7.8239,-7.8347,-7.8328,-7.8441,-7.8532,-7.8671,-7.8768,-7.8882,-7.9049,-7.9185,-7.9262,-7.9397,-7.9479,-7.9476,-7.9513,-7.9506,-7.9519,-7.9303,-7.9259,-7.9512,-7.9512,-7.9512,-7.9512,-7.9512,-7.9512,-7.7619,-7.7727,-7.7834,-7.7973,-7.8055,-7.8151,-7.8259,-7.8319,-7.8442,-7.859,-7.8604,-7.8762,-7.8865,-7.9044,-7.9112,-7.9234,-7.9199,-7.9248,-7.926,-7.9271,-7.9277,-7.8965,-7.9259,-7.9258,-7.9258,-7.9257,-7.9257,0,-7.7422,-7.7442,-7.7568,-7.7702,-7.7805,-7.7913,-7.8017,-7.8085,-7.8137,-7.8237,-7.8385,-7.8475,-7.8652,-7.8792,-7.8927,-7.8988,-7.8976,-7.898,-7.9013,-7.9006,-7.8982,-7.8993,-7.8635,-7.8971,-7.8968,-7.8967,-7.8965,-7.8964,-7.7138,-7.7263,-7.7392,-7.7475,-7.754,-7.7675,-7.7762,-7.7799,-7.7889,-7.8021,-7.8115,-7.8258,-7.8374,-7.8604,-7.8671,-7.8803,-7.8798,-7.8921,-7.8817,-7.8805,-7.8795,-7.8786,-7.8797,-7.894,-7.8943,-7.8946,-7.8948,0,-7.6974,-7.7028,-7.7232,-7.7348,-7.738,-7.7508,-7.7606,-7.7716,-7.7763,-7.792,-7.7958,-7.8031,-7.8175,-7.8224,-7.8398,-7.8418,-7.8623,-7.8617,-7.8586,-7.8586,-7.8699,-7.8686,-7.9065,-7.9115,-7.8815,-7.8818,-7.8821,0,-7.6751,-7.6914,-7.6984,-7.71,-7.728,-7.7315,-7.7492,-7.755,-7.7642,-7.7766,-7.7762,-7.7878,-7.7923,-7.8045,-7.8076,-7.8252,-7.8286,-7.8311,-7.8316,-7.831,-7.8306,-7.8355,-7.8339,-7.8329,-7.8327,-7.8326,-7.8324,0,-7.6485,-7.6716,-7.6905,-7.6966,-7.7107,-7.7194,-7.7256,-7.736,-7.7445,-7.7563,-7.7617,-7.7753,-7.7826,-7.7929,-7.7967,-7.7894,-7.8185,-7.8093,-7.821,-7.8209,-7.827,-7.8265,-7.8591,-7.8322,-7.8321,-7.832,-7.832,0,-7.6313,-7.6435,-7.6702,-7.6817,-7.6877,-7.7002,-7.7137,-7.7255,-7.7365,-7.7393,-7.7486,-7.7489,-7.7651,-7.7554,-7.7776,-7.767,-7.7741,-7.7781,-7.779,-7.7804,-7.7695,-7.7868,-7.8177,-7.8209,-7.782,-7.7816,-7.7813,0,-7.5992,-7.6278,-7.631,-7.6563,-7.6701,-7.6687,-7.6826,-7.6924,-7.6973,-7.7096,-7.7149,-7.7289,-7.7228,-7.7278,-7.7382,-7.7442,-7.758,-7.7425,-7.7595,-7.7601,-7.7563,-7.7849,-7.7881,-7.8104,-7.776,-7.7766,-7.777,0,-7.575,-7.5923,-7.5967,-7.6037,-7.6175,-7.6292,-7.6453,-7.66,-7.6679,-7.6792,-7.6925,-7.7125,-7.7086,-7.717,-7.7187,-7.7293,-7.7488,-7.7236,-7.7239,-7.7276,-7.774,-7.7768,-7.7806,-7.7475,-7.7482,-7.7487,-7.7728,0,-7.547,-7.5622,-7.5743,-7.5901,-7.6,-7.6163,-7.6217,-7.6313,-7.6319,-7.6367,-7.6566,-7.6662,-7.6811,-7.6869,-7.6877,-7.7105,-7.7073,-7.7031,-7.6938,-7.7127,-7.7208,-7.7241,-7.6814,-7.6811,-7.6809,-7.6808,0,0,-7.5147,-7.5366,-7.5399,-7.5558,-7.5642,-7.5626,-7.5795,-7.5876,-7.6039,-7.6097,-7.6047,-7.6342,-7.6422,-7.6657,-7.6721,-7.6783,-7.6827,-7.676,-7.7038,-7.7063,-7.7087,-7.7172,-7.7206,-7.6804,-7.6804,-7.6803,-7.6802,0,-7.5056,-7.5142,-7.5311,-7.5396,-7.5523,-7.5568,-7.5608,-7.5731,-7.577,-7.5968,-7.595,-7.6076,-7.6314,-7.6399,-7.6473,-7.6734,-7.6712,-7.6776,-7.6896,-7.7016,-7.7044,-7.7069,-7.7158,-7.719,-7.6797,-7.6798,-7.6798,0,-7.4824,-7.4916,-7.5005,-7.52,-7.5284,-7.5428,-7.5345,-7.5503,-7.5609,-7.5583,-7.5779,-7.5839,-7.5959,-7.6177,-7.6277,-7.6233,-7.6604,-7.6498,-7.6513,-7.6524,-7.6642,-7.6676,-7.6706,-7.6309,-7.6307,-7.6305,0,0,-7.4737,-7.488,-7.4991,-7.5185,-7.5239,-7.5307,-7.539,-7.5406,-7.5515,-7.5559,-7.5637,-7.5743,-7.588,-7.597,-7.6102,-7.6335,-7.636,-7.6436,-7.6459,-7.6478,-7.6499,-7.6622,-7.6655,-7.6298,-7.6298,-7.6298,0,0,-7.4696,-7.4832,-7.482,-7.5052,-7.5158,-7.5279,-7.5394,-7.5381,-7.5507,-7.5494,-7.5526,-7.5556,-7.5761,-7.5822,-7.5718,-7.607,-7.5978,-7.6004,-7.6023,-7.6052,-7.6075,-7.6055,-7.5645,0,0,0,0,0,-7.4631,-7.4815,-7.4803,-7.485,-7.5098,-7.5286,-7.5317,-7.5349,-7.5283,-7.5373,-7.5435,-7.5408,-7.5771,-7.568,-7.5726,-7.584,-7.6204,-7.6221,-7.6236,-7.6315,-7.6346,-7.6372,0,0,0,0,0,0,-7.4649,-7.4707,-7.4798,-7.4926,-7.4982,-7.5279,-7.5173,-7.5187,-7.5274,-7.5266,-7.5397,-7.5412,-7.5442,-7.5659,-7.57,-7.5808,-7.5631,-7.6211,-7.6225,-7.6237,-7.6326,-7.6351,-7.6372,0,0,0,0,0,-7.4665,-7.4711,-7.5101,-7.4924,-7.4973,-7.5059,-7.5167,-7.5177,-7.5245,-7.5343,-7.5357,-7.5261,-7.5444,-7.548,-7.5683,-7.5789,-7.5603,-7.5618,-7.622,-7.6231,-7.6241,-7.6338,0,0,0,0,0,0,-7.4676,-7.4722,-7.5111,-7.5127,-7.4857,-7.5043,-7.5073,-7.5169,-7.5316,-7.5333,-7.5207,-7.5199,-7.5448,-7.5475,-7.5503,-7.578,-7.5581,-7.5596,-7.5606,-7.6228,-7.6237,-7.6245,0,0,0,0,0,0,-7.4697,-7.4735,-7.5119,-7.5034,-7.504,-7.5028,-7.5055,-7.5233,-7.5318,-7.5173,-7.5171,-7.5202,-7.5405,-7.5473,-7.5494,-7.5771,-7.5563,-7.5578,-7.5588,-7.5595,-7.6235,-7.6242,0,0,0,0,0,0,-7.4713,-7.4747,-7.5029,-7.5035,-7.504,-7.522,-7.5185,-7.5437,-7.5246,-7.5167,-7.523,-7.5222,-7.5404,-7.5426,-7.5489,-7.5756,-7.5767,-7.5564,-7.5574,-7.5581,-7.5586,0,0,0,0,0,0,0,-7.4727,-7.4499,-7.5017,-7.5035,-7.504,-7.5274,-7.5279,-7.5283,-7.5245,-7.5238,-7.5231,-7.5225,-7.548,-7.5496,-7.5512,-7.5744,0,0,-7.5562,-7.557,0,0,0,0,0,0,0,0,-7.4485,-7.4495,-7.5018,-7.5021,-7.5024,-7.5275,-7.5278,-7.5282,-7.5243,-7.5238,-7.5233,-7.5228,-7.5485,-7.5497,-7.5511,0,0,0,0,0,0,0,0,0,0,0,0,0,0,0,-7.5018,-7.5021,0,-7.5275,-7.5278,-7.5281,-7.5243,-7.5238,-7.5234,-7.523,-7.5488,-7.5499,-7.551,0,0,0,0,0,0,0,0,0,0,0,0,0,0,0,0,0,0,0,0,0,0,0,0,0,0,0,0,0,0,0,0,0,0,0,0,0,0,0,0,0,0,0,0,0,0,0,0,0,0,0,0,0,0,0,0,0,0,0,0,0,0,0,0,0,0,0,0,0]}]]]